,,Stat5,,Stat1,,Stat2,,Stat3,,Stat4,,Wind1,,Wind1,
time,status,PA1M_AVG,status,PR1M_SUM,status,RH1M_AVG,status,SR1M_AVG,status,TA1M_AVG,status,W1dAve1m,status,W1sAve1m,
2000-09-21, 00:00:00,VALID,918.103,VALID,0,VALID,97.6999,VALID,-0.0509425,VALID,19.9199,VALID,84,VALID,0,
2000-09-21, 00:01:00,VALID,918.105,VALID,0,VALID,97.766,VALID,-0.0339617,VALID,19.9296,VALID,60,VALID,0,
2000-09-21, 00:02:00,VALID,918.101,VALID,0,VALID,97.6719,VALID,-0.0339617,VALID,19.9005,VALID,45,VALID,0,
2000-09-21, 00:03:00,VALID,918.092,VALID,0,VALID,97.6516,VALID,-0.0339617,VALID,19.8779,VALID,64,VALID,0,
2000-09-21, 00:04:00,VALID,918.095,VALID,0,VALID,97.6936,VALID,-0.0339617,VALID,19.8682,VALID,85,VALID,0,
2000-09-21, 00:05:00,VALID,918.089,VALID,0,VALID,97.8004,VALID,-0.0169808,VALID,19.8806,VALID,86,VALID,0,
2000-09-21, 00:06:00,VALID,918.08,VALID,0,VALID,97.8614,VALID,0,VALID,19.8841,VALID,86,VALID,0,
2000-09-21, 00:07:00,VALID,918.084,VALID,0,VALID,97.9034,VALID,-0.0339617,VALID,19.8873,VALID,83,VALID,0,
2000-09-21, 00:08:00,VALID,918.076,VALID,0,VALID,97.8614,VALID,-0.0169808,VALID,19.8776,VALID,64,VALID,0,
2000-09-21, 00:09:00,VALID,918.082,VALID,0,VALID,97.8767,VALID,-0.0339617,VALID,19.8617,VALID,63,VALID,0,
2000-09-21, 00:10:00,VALID,918.067,VALID,0,VALID,97.9008,VALID,-0.0849042,VALID,19.8558,VALID,63,VALID,0,
2000-09-21, 00:11:00,VALID,918.057,VALID,0,VALID,97.9174,VALID,-0.0679233,VALID,19.8419,VALID,63,VALID,0,
2000-09-21, 00:12:00,VALID,918.04,VALID,0,VALID,98.0077,VALID,-0.0509425,VALID,19.8421,VALID,63,VALID,0,
2000-09-21, 00:13:00,VALID,918.04,VALID,0,VALID,98.0394,VALID,-0.0169808,VALID,19.8451,VALID,63,VALID,0,
2000-09-21, 00:14:00,VALID,918.044,VALID,0,VALID,98.07,VALID,-0.0679233,VALID,19.8685,VALID,89,VALID,0,
2000-09-21, 00:15:00,VALID,918.051,VALID,0,VALID,98.1094,VALID,-0.0339617,VALID,19.8747,VALID,94,VALID,0,
2000-09-21, 00:16:00,VALID,918.049,VALID,0,VALID,98.1552,VALID,-0.0339617,VALID,19.9037,VALID,97,VALID,0,
2000-09-21, 00:17:00,VALID,918.054,VALID,0,VALID,98.1933,VALID,-0.0679233,VALID,19.9102,VALID,99,VALID,0,
2000-09-21, 00:18:00,VALID,918.048,VALID,0,VALID,98.1869,VALID,-0.0849042,VALID,19.9231,VALID,95,VALID,0,
2000-09-21, 00:19:00,VALID,918.052,VALID,0,VALID,98.1412,VALID,-0.0679233,VALID,19.9107,VALID,87,VALID,0,
2000-09-21, 00:20:00,VALID,918.05,VALID,0,VALID,98.1323,VALID,-0.0509425,VALID,19.9003,VALID,93,VALID,0,
2000-09-21, 00:21:00,VALID,918.04,VALID,0,VALID,98.1208,VALID,-0.0509425,VALID,19.8903,VALID,100,VALID,0,
2000-09-21, 00:22:00,VALID,918.037,VALID,0,VALID,98.1348,VALID,-0.0509425,VALID,19.9037,VALID,100,VALID,0,
2000-09-21, 00:23:00,VALID,918.026,VALID,0,VALID,98.1552,VALID,-0.0509425,VALID,19.9139,VALID,102,VALID,0,
2000-09-21, 00:24:00,VALID,918.019,VALID,0,VALID,98.1463,VALID,-0.0849042,VALID,19.9199,VALID,110,VALID,0,
2000-09-21, 00:25:00,VALID,918.01,VALID,0,VALID,98.1374,VALID,-0.0849042,VALID,19.9134,VALID,104,VALID,0,
2000-09-21, 00:26:00,VALID,918.007,VALID,0,VALID,98.1094,VALID,-0.0679233,VALID,19.9167,VALID,101,VALID,0,
2000-09-21, 00:27:00,VALID,917.999,VALID,0,VALID,98.0954,VALID,0,VALID,19.9204,VALID,101,VALID,0,
2000-09-21, 00:28:00,VALID,917.991,VALID,0,VALID,98.1119,VALID,-0.0509425,VALID,19.9331,VALID,99,VALID,0,
2000-09-21, 00:29:00,VALID,917.983,VALID,0,VALID,98.089,VALID,-0.0339617,VALID,19.9269,VALID,94,VALID,0,
2000-09-21, 00:30:00,VALID,917.981,VALID,0,VALID,98.0356,VALID,-0.0679233,VALID,19.9134,VALID,94,VALID,0,
2000-09-21, 00:31:00,VALID,917.952,VALID,0,VALID,98.0534,VALID,-0.0509425,VALID,19.9167,VALID,94,VALID,0,
2000-09-21, 00:32:00,VALID,917.938,VALID,0,VALID,98.0407,VALID,-0.0339617,VALID,19.9032,VALID,95,VALID,0,
2000-09-21, 00:33:00,VALID,917.905,VALID,0,VALID,98.0852,VALID,-0.0169808,VALID,19.9393,VALID,96,VALID,0,
2000-09-21, 00:34:00,VALID,917.883,VALID,0,VALID,98.1119,VALID,-0.0169808,VALID,19.9388,VALID,96,VALID,0,
2000-09-21, 00:35:00,VALID,917.862,VALID,0,VALID,98.1374,VALID,-0.0169808,VALID,19.9651,VALID,96,VALID,0,
2000-09-21, 00:36:00,VALID,917.838,VALID,0,VALID,98.1552,VALID,-0.0169808,VALID,19.9808,VALID,96,VALID,0,
2000-09-21, 00:37:00,VALID,917.806,VALID,0,VALID,98.1552,VALID,-0.0169808,VALID,20.0009,VALID,96,VALID,0,
2000-09-21, 00:38:00,VALID,917.792,VALID,0,VALID,98.117,VALID,-0.0339617,VALID,20.0109,VALID,109,VALID,0,
2000-09-21, 00:39:00,VALID,917.766,VALID,0,VALID,98.1005,VALID,-0.0509425,VALID,20.0136,VALID,122,VALID,0,
2000-09-21, 00:40:00,VALID,917.753,VALID,0,VALID,98.0865,VALID,-0.0509425,VALID,20.0205,VALID,122,VALID,0,
2000-09-21, 00:41:00,VALID,917.731,VALID,0,VALID,97.9924,VALID,-0.0169808,VALID,19.991,VALID,122,VALID,0,
2000-09-21, 00:42:00,VALID,917.715,VALID,0,VALID,97.9415,VALID,0,VALID,19.9713,VALID,122,VALID,0,
2000-09-21, 00:43:00,VALID,917.695,VALID,0,VALID,98.0102,VALID,-0.0339617,VALID,19.9651,VALID,122,VALID,0,
2000-09-21, 00:44:00,VALID,917.68,VALID,0,VALID,98.042,VALID,-0.0509425,VALID,19.978,VALID,122,VALID,0,
2000-09-21, 00:45:00,VALID,917.657,VALID,0,VALID,98.0127,VALID,-0.0339617,VALID,19.9684,VALID,122,VALID,0,
2000-09-21, 00:46:00,VALID,917.627,VALID,0,VALID,98,VALID,-0.0339617,VALID,19.9589,VALID,122,VALID,0,
2000-09-21, 00:47:00,VALID,917.605,VALID,0,VALID,97.9771,VALID,-0.0339617,VALID,19.9326,VALID,122,VALID,0,
2000-09-21, 00:48:00,VALID,917.596,VALID,0,VALID,98.0204,VALID,-0.0339617,VALID,19.9425,VALID,122,VALID,0,
2000-09-21, 00:49:00,VALID,917.578,VALID,0,VALID,98.0598,VALID,0,VALID,19.9557,VALID,122,VALID,0,
2000-09-21, 00:50:00,VALID,917.571,VALID,0,VALID,98.075,VALID,-0.0169808,VALID,19.9457,VALID,122,VALID,0,
2000-09-21, 00:51:00,VALID,917.555,VALID,0,VALID,98.1043,VALID,-0.0849042,VALID,19.9589,VALID,122,VALID,0,
2000-09-21, 00:52:00,VALID,917.543,VALID,0,VALID,98.1106,VALID,-0.0679233,VALID,19.9587,VALID,122,VALID,0,
2000-09-21, 00:53:00,VALID,917.528,VALID,0,VALID,98.1297,VALID,-0.0849042,VALID,19.9587,VALID,122,VALID,0,
2000-09-21, 00:54:00,VALID,917.51,VALID,0,VALID,98.1196,VALID,-0.0509425,VALID,19.9686,VALID,109,VALID,0,
2000-09-21, 00:55:00,VALID,917.505,VALID,0,VALID,98.0483,VALID,-0.0339617,VALID,19.9196,VALID,88,VALID,0,
2000-09-21, 00:56:00,VALID,917.496,VALID,0,VALID,98.0305,VALID,-0.0679233,VALID,19.9134,VALID,88,VALID,0,
2000-09-21, 00:57:00,VALID,917.499,VALID,0,VALID,98.0611,VALID,-0.0339617,VALID,19.9003,VALID,88,VALID,0,
2000-09-21, 00:58:00,VALID,917.492,VALID,0,VALID,98.1068,VALID,-0.0509425,VALID,19.9107,VALID,88,VALID,0,
2000-09-21, 00:59:00,VALID,917.479,VALID,0,VALID,98.173,VALID,-0.0339617,VALID,19.9234,VALID,88,VALID,0,
2000-09-21, 01:00:00,VALID,917.48,VALID,0,VALID,98.206,VALID,-0.0339617,VALID,19.9326,VALID,88,VALID,0,
2000-09-21, 01:01:00,VALID,917.462,VALID,0,VALID,98.2353,VALID,0,VALID,19.9651,VALID,88,VALID,0,
2000-09-21, 01:02:00,VALID,917.458,VALID,0,VALID,98.2772,VALID,0,VALID,19.9716,VALID,88,VALID,0,
2000-09-21, 01:03:00,VALID,917.457,VALID,0,VALID,98.3281,VALID,0,VALID,19.9905,VALID,88,VALID,0,
2000-09-21, 01:04:00,VALID,917.442,VALID,0,VALID,98.3561,VALID,-0.0169808,VALID,20.02,VALID,88,VALID,0,
2000-09-21, 01:05:00,VALID,917.427,VALID,0,VALID,98.2963,VALID,0,VALID,19.9813,VALID,88,VALID,0,
2000-09-21, 01:06:00,VALID,917.408,VALID,0,VALID,98.2671,VALID,-0.0169808,VALID,19.9649,VALID,88,VALID,0,
2000-09-21, 01:07:00,VALID,917.391,VALID,0,VALID,98.2645,VALID,0.0169808,VALID,19.9584,VALID,88,VALID,0,
2000-09-21, 01:08:00,VALID,917.369,VALID,0,VALID,98.2353,VALID,-0.0169808,VALID,19.9298,VALID,88,VALID,0,
2000-09-21, 01:09:00,VALID,917.371,VALID,0,VALID,98.2365,VALID,-0.0169808,VALID,19.9105,VALID,88,VALID,0,
2000-09-21, 01:10:00,VALID,917.362,VALID,0,VALID,98.2518,VALID,-0.0169808,VALID,19.9102,VALID,88,VALID,0,
2000-09-21, 01:11:00,VALID,917.351,VALID,0,VALID,98.281,VALID,0,VALID,19.9231,VALID,88,VALID,0,
2000-09-21, 01:12:00,VALID,917.337,VALID,0,VALID,98.3688,VALID,-0.0169808,VALID,19.9619,VALID,90,VALID,0,
2000-09-21, 01:13:00,VALID,917.331,VALID,0,VALID,98.4082,VALID,0.0169808,VALID,19.9743,VALID,91,VALID,0,
2000-09-21, 01:14:00,VALID,917.329,VALID,0,VALID,98.4095,VALID,-0.0169808,VALID,19.9875,VALID,91,VALID,0,
2000-09-21, 01:15:00,VALID,917.308,VALID,0,VALID,98.4578,VALID,0,VALID,20.0004,VALID,91,VALID,0,
2000-09-21, 01:16:00,VALID,917.306,VALID,0,VALID,98.4743,VALID,0,VALID,20.0297,VALID,94,VALID,0,
2000-09-21, 01:17:00,VALID,917.308,VALID,0,VALID,98.5163,VALID,0,VALID,20.0424,VALID,106,VALID,0,
2000-09-21, 01:18:00,VALID,917.309,VALID,0,VALID,98.4998,VALID,0,VALID,20.0422,VALID,101,VALID,0,
2000-09-21, 01:19:00,VALID,917.316,VALID,0,VALID,98.379,VALID,0,VALID,19.9905,VALID,94,VALID,0,
2000-09-21, 01:20:00,VALID,917.33,VALID,0,VALID,98.3408,VALID,-0.0339617,VALID,19.952,VALID,80,VALID,0,
2000-09-21, 01:21:00,VALID,917.324,VALID,0,VALID,98.3624,VALID,-0.0169808,VALID,19.949,VALID,91,VALID,0,
2000-09-21, 01:22:00,VALID,917.315,VALID,0,VALID,98.4171,VALID,-0.0169808,VALID,19.939,VALID,100,VALID,0,
2000-09-21, 01:23:00,VALID,917.302,VALID,0,VALID,98.4718,VALID,0,VALID,19.9552,VALID,101,VALID,0,
2000-09-21, 01:24:00,VALID,917.297,VALID,0,VALID,98.468,VALID,-0.0169808,VALID,19.949,VALID,101,VALID,0,
2000-09-21, 01:25:00,VALID,917.283,VALID,0,VALID,98.4718,VALID,0,VALID,19.9353,VALID,101,VALID,0,
2000-09-21, 01:26:00,VALID,917.266,VALID,0,VALID,98.4959,VALID,0,VALID,19.9395,VALID,101,VALID,0,
2000-09-21, 01:27:00,VALID,917.256,VALID,0,VALID,98.5201,VALID,0,VALID,19.9418,VALID,101,VALID,0,
2000-09-21, 01:28:00,VALID,917.265,VALID,0,VALID,98.5608,VALID,0,VALID,19.9614,VALID,101,VALID,0,
2000-09-21, 01:29:00,VALID,917.264,VALID,0,VALID,98.5786,VALID,-0.0169808,VALID,19.9681,VALID,101,VALID,0,
2000-09-21, 01:30:00,VALID,917.249,VALID,0,VALID,98.5773,VALID,0,VALID,19.9845,VALID,101,VALID,0,
2000-09-21, 01:31:00,VALID,917.244,VALID,0,VALID,98.6066,VALID,0,VALID,19.9877,VALID,101,VALID,0,
2000-09-21, 01:32:00,VALID,917.222,VALID,0,VALID,98.5786,VALID,0,VALID,19.9748,VALID,101,VALID,0,
2000-09-21, 01:33:00,VALID,917.203,VALID,0,VALID,98.5633,VALID,0,VALID,19.9544,VALID,101,VALID,0,
2000-09-21, 01:34:00,VALID,917.19,VALID,0,VALID,98.571,VALID,0.0339617,VALID,19.945,VALID,101,VALID,0,
2000-09-21, 01:35:00,VALID,917.171,VALID,0,VALID,98.5824,VALID,0,VALID,19.942,VALID,101,VALID,0,
2000-09-21, 01:36:00,VALID,917.15,VALID,0,VALID,98.5824,VALID,0,VALID,19.9425,VALID,101,VALID,0,
2000-09-21, 01:37:00,VALID,917.126,VALID,0,VALID,98.5557,VALID,0,VALID,19.9231,VALID,101,VALID,0,
2000-09-21, 01:38:00,VALID,917.115,VALID,0,VALID,98.5354,VALID,0,VALID,19.897,VALID,101,VALID,0,
2000-09-21, 01:39:00,VALID,917.114,VALID,0,VALID,98.5341,VALID,0,VALID,19.8844,VALID,101,VALID,0,
2000-09-21, 01:40:00,VALID,917.109,VALID,0,VALID,98.5786,VALID,-0.0169808,VALID,19.9005,VALID,101,VALID,0,
2000-09-21, 01:41:00,VALID,917.112,VALID,0,VALID,98.5875,VALID,0,VALID,19.9067,VALID,101,VALID,0,
2000-09-21, 01:42:00,VALID,917.107,VALID,0,VALID,98.5417,VALID,0,VALID,19.8804,VALID,101,VALID,0,
2000-09-21, 01:43:00,VALID,917.108,VALID,0,VALID,98.5926,VALID,0.0169808,VALID,19.8908,VALID,101,VALID,0,
2000-09-21, 01:44:00,VALID,917.111,VALID,0,VALID,98.604,VALID,0.0169808,VALID,19.8866,VALID,101,VALID,0,
2000-09-21, 01:45:00,VALID,917.11,VALID,0,VALID,98.6002,VALID,0,VALID,19.8903,VALID,101,VALID,0,
2000-09-21, 01:46:00,VALID,917.1,VALID,0,VALID,98.6702,VALID,0,VALID,19.9199,VALID,101,VALID,0,
2000-09-21, 01:47:00,VALID,917.086,VALID,0,VALID,98.6651,VALID,0,VALID,19.9134,VALID,101,VALID,0,
2000-09-21, 01:48:00,VALID,917.08,VALID,0,VALID,98.6473,VALID,-0.0509425,VALID,19.9102,VALID,80,VALID,0,
2000-09-21, 01:49:00,VALID,917.069,VALID,0,VALID,98.5977,VALID,0,VALID,19.8747,VALID,41,VALID,0,
2000-09-21, 01:50:00,VALID,917.046,VALID,0,VALID,98.6015,VALID,-0.0509425,VALID,19.8458,VALID,41,VALID,0,
2000-09-21, 01:51:00,VALID,917.026,VALID,0,VALID,98.6536,VALID,-0.0169808,VALID,19.8652,VALID,48,VALID,0,
2000-09-21, 01:52:00,VALID,917.002,VALID,0,VALID,98.6956,VALID,0,VALID,19.8747,VALID,49,VALID,0,
2000-09-21, 01:53:00,VALID,916.993,VALID,0,VALID,98.7058,VALID,-0.0169808,VALID,19.8749,VALID,49,VALID,0,
2000-09-21, 01:54:00,VALID,916.994,VALID,0,VALID,98.7248,VALID,-0.0169808,VALID,19.8714,VALID,49,VALID,0,
2000-09-21, 01:55:00,VALID,916.986,VALID,0,VALID,98.7554,VALID,0,VALID,19.8871,VALID,49,VALID,0,
2000-09-21, 01:56:00,VALID,916.998,VALID,0,VALID,98.7795,VALID,0,VALID,19.8968,VALID,49,VALID,0,
2000-09-21, 01:57:00,VALID,916.987,VALID,0,VALID,98.7973,VALID,0,VALID,19.9032,VALID,49,VALID,0,
2000-09-21, 01:58:00,VALID,916.973,VALID,0,VALID,98.8113,VALID,-0.0169808,VALID,19.9196,VALID,49,VALID,0,
2000-09-21, 01:59:00,VALID,916.959,VALID,0,VALID,98.7986,VALID,0,VALID,19.9164,VALID,49,VALID,0,
2000-09-21, 02:00:00,VALID,916.958,VALID,0,VALID,98.8164,VALID,-0.0339617,VALID,19.91,VALID,49,VALID,0,
2000-09-21, 02:01:00,VALID,916.946,VALID,0,VALID,98.8088,VALID,-0.0679233,VALID,19.9067,VALID,49,VALID,0,
2000-09-21, 02:02:00,VALID,916.941,VALID,0,VALID,98.8075,VALID,-0.0169808,VALID,19.9102,VALID,49,VALID,0,
2000-09-21, 02:03:00,VALID,916.922,VALID,0,VALID,98.81,VALID,-0.0169808,VALID,19.8998,VALID,53,VALID,0,
2000-09-21, 02:04:00,VALID,916.929,VALID,0,VALID,98.8126,VALID,-0.0509425,VALID,19.9132,VALID,104,VALID,0,
2000-09-21, 02:05:00,VALID,916.906,VALID,0,VALID,98.8126,VALID,-0.0169808,VALID,19.907,VALID,98,VALID,0,
2000-09-21, 02:06:00,VALID,916.906,VALID,0,VALID,98.8075,VALID,-0.0339617,VALID,19.8938,VALID,98,VALID,0,
2000-09-21, 02:07:00,VALID,916.875,VALID,0,VALID,98.8126,VALID,-0.0849042,VALID,19.8878,VALID,98,VALID,0,
2000-09-21, 02:08:00,VALID,916.87,VALID,0,VALID,98.8088,VALID,-0.0679233,VALID,19.8873,VALID,92,VALID,0,
2000-09-21, 02:09:00,VALID,916.841,VALID,0,VALID,98.8011,VALID,-0.0509425,VALID,19.8712,VALID,90,VALID,0,
2000-09-21, 02:10:01,VALID,916.806,VALID,0,VALID,98.7871,VALID,-0.0169808,VALID,19.8612,VALID,73,VALID,0,
2000-09-21, 02:11:00,VALID,916.799,VALID,0,VALID,98.7643,VALID,0,VALID,19.8426,VALID,15,VALID,0,
2000-09-21, 02:12:00,VALID,916.789,VALID,0,VALID,98.7604,VALID,-0.0169808,VALID,19.813,VALID,54,VALID,0,
2000-09-21, 02:13:00,VALID,916.778,VALID,0,VALID,98.7973,VALID,-0.0509425,VALID,19.8292,VALID,88,VALID,0,
2000-09-21, 02:14:00,VALID,916.773,VALID,0,VALID,98.8266,VALID,-0.0339617,VALID,19.8488,VALID,90,VALID,0,
2000-09-21, 02:15:00,VALID,916.775,VALID,0,VALID,98.8596,VALID,-0.0339617,VALID,19.868,VALID,101,VALID,0,
2000-09-21, 02:16:00,VALID,916.765,VALID,0,VALID,98.8711,VALID,-0.0679233,VALID,19.8809,VALID,107,VALID,0,
2000-09-21, 02:17:01,VALID,916.771,VALID,0,VALID,98.8647,VALID,-0.0339617,VALID,19.864,VALID,101,VALID,0,
2000-09-21, 02:18:01,VALID,916.782,VALID,0,VALID,98.8329,VALID,-0.0339617,VALID,19.8548,VALID,98,VALID,0,
2000-09-21, 02:19:00,VALID,916.782,VALID,0,VALID,98.8533,VALID,-0.0509425,VALID,19.8612,VALID,98,VALID,0,
2000-09-21, 02:20:00,VALID,916.789,VALID,0,VALID,98.8596,VALID,-0.0849042,VALID,19.8585,VALID,98,VALID,0,
2000-09-21, 02:21:01,VALID,916.797,VALID,0,VALID,98.8901,VALID,-0.0509425,VALID,19.8647,VALID,96,VALID,0,
2000-09-21, 02:22:00,VALID,916.794,VALID,0,VALID,98.8965,VALID,-0.0169808,VALID,19.8841,VALID,114,VALID,0,
2000-09-21, 02:23:00,VALID,916.791,VALID,0,VALID,98.913,VALID,-0.0169808,VALID,19.8774,VALID,103,VALID,0,
2000-09-21, 02:24:00,VALID,916.789,VALID,0,VALID,98.8723,VALID,0,VALID,19.868,VALID,80,VALID,0,
2000-09-21, 02:25:01,VALID,916.785,VALID,0,VALID,98.8876,VALID,-0.0169808,VALID,19.8682,VALID,89,VALID,0,
2000-09-21, 02:26:00,VALID,916.788,VALID,0,VALID,98.8774,VALID,-0.0169808,VALID,19.8553,VALID,78,VALID,0,
2000-09-21, 02:27:00,VALID,916.784,VALID,0,VALID,98.8673,VALID,-0.0339617,VALID,19.8192,VALID,87,VALID,0,
2000-09-21, 02:28:01,VALID,916.782,VALID,0,VALID,98.8901,VALID,-0.0679233,VALID,19.823,VALID,91,VALID,0,
2000-09-21, 02:29:00,VALID,916.77,VALID,0,VALID,98.9067,VALID,-0.0339617,VALID,19.8163,VALID,89,VALID,0,
2000-09-21, 02:30:00,VALID,916.766,VALID,0,VALID,98.8812,VALID,-0.0169808,VALID,19.8033,VALID,85,VALID,0,
2000-09-21, 02:31:00,VALID,916.756,VALID,0,VALID,98.9029,VALID,0,VALID,19.8101,VALID,85,VALID,0,
2000-09-21, 02:32:00,VALID,916.733,VALID,0,VALID,98.9219,VALID,-0.0509425,VALID,19.7969,VALID,97,VALID,0,
2000-09-21, 02:33:00,VALID,916.73,VALID,0,VALID,98.9029,VALID,-0.0169808,VALID,19.7907,VALID,96,VALID,0,
2000-09-21, 02:34:00,VALID,916.719,VALID,0,VALID,98.9346,VALID,-0.0509425,VALID,19.7934,VALID,78,VALID,0,
2000-09-21, 02:35:00,VALID,916.703,VALID,0,VALID,98.9372,VALID,-0.0339617,VALID,19.7937,VALID,101,VALID,0,
2000-09-21, 02:36:01,VALID,916.698,VALID,0,VALID,98.9296,VALID,-0.0339617,VALID,19.7778,VALID,112,VALID,0,
2000-09-21, 02:37:00,VALID,916.683,VALID,0,VALID,98.9677,VALID,0,VALID,19.7869,VALID,100,VALID,0,
2000-09-21, 02:38:01,VALID,916.671,VALID,0,VALID,99.0071,VALID,-0.0339617,VALID,19.813,VALID,87,VALID,0,
2000-09-21, 02:39:00,VALID,916.658,VALID,0,VALID,99.0084,VALID,-0.0339617,VALID,19.8036,VALID,81,VALID,0,
2000-09-21, 02:40:00,VALID,916.644,VALID,0,VALID,99.016,VALID,-0.0169808,VALID,19.8128,VALID,82,VALID,0,
2000-09-21, 02:41:00,VALID,916.634,VALID,0,VALID,99.0377,VALID,-0.0169808,VALID,19.823,VALID,99,VALID,0,
2000-09-21, 02:42:00,VALID,916.626,VALID,0,VALID,99.0567,VALID,-0.0849042,VALID,19.8227,VALID,103,VALID,0,
2000-09-21, 02:43:00,VALID,916.618,VALID,0,VALID,99.0555,VALID,-0.0339617,VALID,19.8426,VALID,81,VALID,0,
2000-09-21, 02:44:00,VALID,916.608,VALID,0,VALID,99.0364,VALID,-0.0169808,VALID,19.8133,VALID,69,VALID,0,
2000-09-21, 02:45:00,VALID,916.597,VALID,0,VALID,99.0516,VALID,0,VALID,19.8197,VALID,83,VALID,0,
2000-09-21, 02:46:00,VALID,916.604,VALID,0,VALID,99.0783,VALID,-0.0339617,VALID,19.8394,VALID,84,VALID,0,
2000-09-21, 02:47:00,VALID,916.599,VALID,0,VALID,99.0949,VALID,-0.0339617,VALID,19.8486,VALID,103,VALID,0,
2000-09-21, 02:48:01,VALID,916.592,VALID,0,VALID,99.1076,VALID,-0.0679233,VALID,19.8553,VALID,188,VALID,0,
2000-09-21, 02:49:00,VALID,916.571,VALID,0,VALID,99.0923,VALID,-0.0339617,VALID,19.8384,VALID,181,VALID,0,
2000-09-21, 02:50:00,VALID,916.546,VALID,0,VALID,99.086,VALID,-0.0339617,VALID,19.8359,VALID,177,VALID,0,
2000-09-21, 02:51:00,VALID,916.53,VALID,0,VALID,99.0834,VALID,-0.0339617,VALID,19.823,VALID,137,VALID,0,
2000-09-21, 02:52:00,VALID,916.512,VALID,0,VALID,99.0694,VALID,-0.0509425,VALID,19.7807,VALID,102,VALID,0,
2000-09-21, 02:53:01,VALID,916.51,VALID,0,VALID,99.0631,VALID,-0.0509425,VALID,19.7877,VALID,110,VALID,0.528711,
2000-09-21, 02:54:01,VALID,916.487,VALID,0,VALID,99.0669,VALID,-0.0339617,VALID,19.7646,VALID,103,VALID,0.63199,
2000-09-21, 02:55:00,VALID,916.484,VALID,0,VALID,99.044,VALID,-0.0339617,VALID,19.7124,VALID,40,VALID,0.592722,
2000-09-21, 02:56:00,VALID,916.468,VALID,0,VALID,98.997,VALID,-0.0339617,VALID,19.6682,VALID,50,VALID,0.418269,
2000-09-21, 02:57:01,VALID,916.459,VALID,0,VALID,98.9995,VALID,-0.0339617,VALID,19.6356,VALID,99,VALID,0.835337,
2000-09-21, 02:58:00,VALID,916.446,VALID,0,VALID,99.0402,VALID,-0.0509425,VALID,19.6488,VALID,97,VALID,1.1222,
2000-09-21, 02:59:00,VALID,916.442,VALID,0,VALID,99.0847,VALID,-0.0169808,VALID,19.6612,VALID,96,VALID,1.32031,
2000-09-21, 03:00:00,VALID,916.439,VALID,0,VALID,99.0542,VALID,-0.0169808,VALID,19.6383,VALID,88,VALID,1.09238,
2000-09-21, 03:01:01,VALID,916.447,VALID,0,VALID,99.0593,VALID,0.0169808,VALID,19.6289,VALID,103,VALID,1.00282,
2000-09-21, 03:02:00,VALID,916.451,VALID,0,VALID,99.0669,VALID,-0.0169808,VALID,19.6224,VALID,92,VALID,1.86003,
2000-09-21, 03:03:00,VALID,916.459,VALID,0,VALID,99.0453,VALID,0.0169808,VALID,19.5964,VALID,92,VALID,1.63535,
2000-09-21, 03:04:01,VALID,916.466,VALID,0,VALID,98.8367,VALID,0.0169808,VALID,19.4644,VALID,108,VALID,1.79646,
2000-09-21, 03:05:00,VALID,916.478,VALID,0,VALID,98.8838,VALID,0,VALID,19.4122,VALID,90,VALID,1.11892,
2000-09-21, 03:06:00,VALID,916.482,VALID,0,VALID,98.9486,VALID,0,VALID,19.3998,VALID,84,VALID,1.06841,
2000-09-21, 03:07:00,VALID,916.498,VALID,0,VALID,98.9372,VALID,0.0339617,VALID,19.3379,VALID,75,VALID,1.70399,
2000-09-21, 03:08:01,VALID,916.519,VALID,0,VALID,98.9105,VALID,0.0169808,VALID,19.2967,VALID,85,VALID,1.5477,
2000-09-21, 03:09:01,VALID,916.528,VALID,0,VALID,98.9105,VALID,0,VALID,19.2383,VALID,93,VALID,1.38345,
2000-09-21, 03:10:01,VALID,916.557,VALID,0,VALID,98.9588,VALID,0.0169808,VALID,19.2189,VALID,76,VALID,1.44341,
2000-09-21, 03:11:00,VALID,916.574,VALID,0,VALID,98.9982,VALID,0.0169808,VALID,19.206,VALID,98,VALID,1.30449,
2000-09-21, 03:12:01,VALID,916.6,VALID,0,VALID,98.9868,VALID,0.0509425,VALID,19.164,VALID,91,VALID,1.79605,
2000-09-21, 03:13:00,VALID,916.629,VALID,0,VALID,99.002,VALID,0.0339617,VALID,19.1444,VALID,84,VALID,1.64548,
2000-09-21, 03:14:00,VALID,916.643,VALID,0,VALID,99.0135,VALID,0,VALID,19.1156,VALID,87,VALID,1.81992,
2000-09-21, 03:15:00,VALID,916.658,VALID,0,VALID,99.03,VALID,-0.0169808,VALID,19.0962,VALID,85,VALID,2.03454,
2000-09-21, 03:16:01,VALID,916.659,VALID,0,VALID,99.0275,VALID,0,VALID,19.0641,VALID,81,VALID,1.57612,
2000-09-21, 03:17:01,VALID,916.66,VALID,0,VALID,99.0631,VALID,0.0169808,VALID,19.0544,VALID,84,VALID,1.80809,
2000-09-21, 03:18:00,VALID,916.668,VALID,0,VALID,99.1089,VALID,0,VALID,19.0574,VALID,91,VALID,1.32292,
2000-09-21, 03:19:01,VALID,916.673,VALID,0,VALID,99.1521,VALID,0.0169808,VALID,19.0738,VALID,84,VALID,0.967272,
2000-09-21, 03:20:00,VALID,916.678,VALID,0,VALID,99.133,VALID,0,VALID,19.0544,VALID,63,VALID,1.29627,
2000-09-21, 03:21:00,VALID,916.669,VALID,0,VALID,99.1241,VALID,0,VALID,19.0221,VALID,73,VALID,0.711554,
2000-09-21, 03:22:01,VALID,916.67,VALID,0,VALID,99.1686,VALID,0,VALID,19.0418,VALID,87,VALID,1.3933,
2000-09-21, 03:23:00,VALID,916.668,VALID,0,VALID,99.1483,VALID,-0.0169808,VALID,19.006,VALID,78,VALID,1.39041,
2000-09-21, 03:24:00,VALID,916.664,VALID,0,VALID,99.1737,VALID,0,VALID,19.0097,VALID,87,VALID,1.50846,
2000-09-21, 03:25:00,VALID,916.653,VALID,0,VALID,99.2055,VALID,0.0169808,VALID,19.0122,VALID,76,VALID,1.83953,
2000-09-21, 03:26:00,VALID,916.646,VALID,0,VALID,99.1813,VALID,0,VALID,18.9831,VALID,62,VALID,1.21032,
2000-09-21, 03:27:01,VALID,916.641,VALID,0,VALID,99.1813,VALID,0,VALID,18.9739,VALID,74,VALID,1.72075,
2000-09-21, 03:28:00,VALID,916.647,VALID,0,VALID,99.2182,VALID,-0.0169808,VALID,18.9834,VALID,96,VALID,1.04988,
2000-09-21, 03:29:01,VALID,916.642,VALID,0,VALID,99.2246,VALID,0.0339617,VALID,18.9672,VALID,70,VALID,1.30279,
2000-09-21, 03:30:00,VALID,916.637,VALID,0,VALID,99.2411,VALID,0.0169808,VALID,18.9841,VALID,74,VALID,0.893092,
2000-09-21, 03:31:01,VALID,916.646,VALID,0,VALID,99.2653,VALID,-0.0169808,VALID,18.9739,VALID,61,VALID,1.05829,
2000-09-21, 03:32:01,VALID,916.641,VALID,0,VALID,99.25,VALID,0,VALID,18.9486,VALID,46,VALID,1.43089,
2000-09-21, 03:33:01,VALID,916.62,VALID,0,VALID,99.2831,VALID,0,VALID,18.9608,VALID,97,VALID,1.15786,
2000-09-21, 03:34:01,VALID,916.626,VALID,0,VALID,99.3174,VALID,-0.0169808,VALID,18.9869,VALID,90,VALID,1.54975,
2000-09-21, 03:35:01,VALID,916.608,VALID,0,VALID,99.3403,VALID,-0.0169808,VALID,18.9769,VALID,91,VALID,1.90097,
2000-09-21, 03:36:01,VALID,916.609,VALID,0,VALID,99.3619,VALID,-0.0169808,VALID,18.9961,VALID,87,VALID,1.62869,
2000-09-21, 03:37:00,VALID,916.616,VALID,0,VALID,99.3466,VALID,0.0169808,VALID,18.9802,VALID,78,VALID,1.78364,
2000-09-21, 03:38:00,VALID,916.614,VALID,0,VALID,99.3466,VALID,0,VALID,18.9615,VALID,77,VALID,1.66386,
2000-09-21, 03:39:00,VALID,916.606,VALID,0,VALID,99.3721,VALID,-0.0169808,VALID,18.9744,VALID,86,VALID,1.16571,
2000-09-21, 03:40:00,VALID,916.614,VALID,0,VALID,99.3873,VALID,0,VALID,18.9809,VALID,79,VALID,1.34136,
2000-09-21, 03:41:00,VALID,916.615,VALID,0,VALID,99.3924,VALID,0,VALID,18.9776,VALID,71,VALID,0.907366,
2000-09-21, 03:42:01,VALID,916.629,VALID,0,VALID,99.4001,VALID,-0.0169808,VALID,18.9739,VALID,80,VALID,1.21793,
2000-09-21, 03:43:00,VALID,916.635,VALID,0,VALID,99.4369,VALID,0,VALID,19.0005,VALID,82,VALID,1.07312,
2000-09-21, 03:44:01,VALID,916.631,VALID,0,VALID,99.4077,VALID,0,VALID,18.9871,VALID,79,VALID,1.45996,